Rochelle, IL

12:11 AM CDT on October 23, 2017 (GMT -0500)
Rochelle

Weather History for KRPJ - April, 2013

Change the Weather History Date:

Monday, April 8, 2013

  Actual Average (KRFD) Record (KRFD)
Temperature  
Mean Temperature 52 °F -  
Max Temperature 66 °F 53 °F 85 °F (1931)
Min Temperature 39 °F 33 °F 15 °F (1972)
Degree Days  
Heating Degree Days 12    
Growing Degree Days 2 (Base 50)    
Moisture  
Dew Point 48 °F    
Average Humidity 83    
Maximum Humidity 98    
Minimum Humidity 65    
Precipitation  
Precipitation 0.36 in - - ()
Sea Level Pressure  
Sea Level Pressure 29.77 in    
Wind  
Wind Speed 15 mph (SE)    
Max Wind Speed 37 mph    
Max Gust Speed 51 mph    
Visibility 8 miles    
Events Rain , Thunderstorm    
Averages and records for this station are not official NWS values.
T = Trace of Precipitation, MM = Missing Value Source: NWS Daily Summary

Daily Weather History Graph

Daily Weather History Graph

Search for Another Location

Airport or City:

Trip Planner

Search our weather history database for the weather conditions in past years. The results will help you decide how hot, cold, wet, or windy it might be!

Date:

Astronomy

Apr. 08, 2013 Rise Set
Actual Time 6:26 AM CDT 7:29 PM CDT
Civil Twilight 5:58 AM CDT 7:58 PM CDT
Nautical Twilight 5:24 AM CDT 8:32 PM CDT
Astronomical Twilight 4:48 AM CDT 9:08 PM CDT
Moon 5:18 AM CDT (4/8) 6:03 PM CDT (4/8)
Length of Visible Light 14h 00m
Length of Day
13h 02m
Waning Crescent, 3% of the Moon is Illuminated
Apr 8
Waning Crescent
Apr 10
New
Apr 18
First Quarter
Apr 25
Full
May 2
Last Quarter

Hourly Weather History & Observations

Time (CDT) Temp. Windchill Dew Point Humidity Pressure Visibility Wind Dir Wind Speed Gust Speed Precip Events Conditions
12:15 AM 39.2 °F 32.5 °F 34.9 °F 84% 29.87 in 7.0 mi East 10.4 mph - N/A   Clear
12:35 AM 39.4 °F 33.2 °F 34.7 °F 83% 29.87 in 7.0 mi East 9.2 mph - N/A   Clear
12:55 AM 39.4 °F 32.3 °F 34.9 °F 84% 29.87 in 7.0 mi East 11.5 mph - N/A   Clear
1:15 AM 39.6 °F 32.1 °F 35.1 °F 84% 29.86 in 7.0 mi East 12.7 mph - N/A   Clear
1:35 AM 39.7 °F 31.9 °F 35.2 °F 84% 29.84 in 7.0 mi ESE 13.8 mph - N/A   Clear
1:55 AM 40.3 °F 31.0 °F 35.4 °F 83% 29.82 in 7.0 mi ESE 19.6 mph 23.0 mph N/A   Clear
2:15 AM 41.0 °F 31.6 °F 35.8 °F 82% 29.80 in 7.0 mi East 20.7 mph - N/A   Clear
2:35 AM 41.4 °F 32.4 °F 36.1 °F 82% 29.78 in 7.0 mi East 19.6 mph - N/A   Clear
2:55 AM 41.9 °F 32.6 °F 36.5 °F 81% 29.77 in 7.0 mi ESE 21.9 mph - N/A   Clear
3:15 AM 43.2 °F 35.6 °F 36.5 °F 77% 29.78 in 10.0 mi ESE 16.1 mph - N/A Thunderstorm Clear
3:35 AM 43.7 °F 35.7 °F 37.0 °F 77% 29.76 in 10.0 mi ESE 18.4 mph - N/A   Scattered Clouds
3:55 AM 44.2 °F 37.0 °F 37.6 °F 77% 29.76 in 10.0 mi ESE 16.1 mph - N/A   Scattered Clouds
4:15 AM 44.8 °F 37.7 °F 37.9 °F 77% 29.74 in 10.0 mi ESE 16.1 mph 21.9 mph N/A Thunderstorm Scattered Clouds
4:35 AM 43.9 °F 36.5 °F 39.2 °F 84% 29.73 in 7.0 mi SE 16.1 mph - N/A Rain Light Rain
4:55 AM 44.1 °F 37.1 °F 40.8 °F 88% 29.73 in 5.0 mi SE 15.0 mph - 0.04 in Rain Rain
5:15 AM 44.2 °F 38.0 °F 41.9 °F 91% 29.71 in 4.0 mi SE 12.7 mph - 0.07 in Rain Rain
5:35 AM 44.6 °F 37.4 °F 43.0 °F 94% 29.67 in 3.0 mi ESE 16.1 mph - 0.16 in Rain Rain
5:55 AM 45.7 °F 38.3 °F 44.6 °F 96% 29.61 in 3.0 mi East 18.4 mph - 0.19 in Rain Light Rain
6:15 AM 47.5 °F - 46.6 °F 97% 29.61 in 3.0 mi ESE 19.6 mph - 0.03 in Rain Rain
6:35 AM 49.6 °F - 49.1 °F 98% 29.60 in 5.0 mi SE 21.9 mph 27.6 mph 0.12 in Rain Light Rain
6:55 AM 52.3 °F - 51.6 °F 97% 29.59 in 10.0 mi SE 23.0 mph 31.1 mph 0.12 in   Overcast
7:15 AM 53.1 °F - 51.8 °F 95% 29.58 in 7.0 mi SSE 24.2 mph 32.2 mph N/A   Overcast
7:35 AM 54.1 °F - 52.7 °F 95% 29.56 in 5.0 mi SSE 26.5 mph 33.4 mph N/A Rain Light Rain
7:55 AM 54.9 °F - 53.1 °F 94% 29.56 in 10.0 mi South 25.3 mph 33.4 mph 0.01 in   Overcast
8:15 AM 55.9 °F - 52.9 °F 89% 29.54 in 7.0 mi SSW 23.0 mph 35.7 mph N/A Rain Light Rain
8:35 AM 54.7 °F - 51.8 °F 90% 29.52 in 4.0 mi SSW 29.9 mph 35.7 mph N/A Rain Light Rain
8:55 AM 53.8 °F - 51.1 °F 91% 29.52 in 10.0 mi SW 34.5 mph 43.7 mph N/A   Overcast
9:15 AM 50.9 °F - 48.6 °F 92% 29.56 in 10.0 mi WSW 36.8 mph 50.6 mph N/A   Overcast
9:35 AM 50.9 °F - 49.1 °F 94% 29.60 in 5.0 mi WSW 35.7 mph 44.9 mph N/A   Overcast
9:55 AM 50.5 °F - 48.7 °F 94% 29.64 in 5.0 mi WSW 26.5 mph 36.8 mph N/A   Overcast
10:15 AM 50.0 °F - 48.2 °F 94% 29.66 in 7.0 mi West 21.9 mph 32.2 mph N/A   Overcast
10:35 AM 49.1 °F - 47.5 °F 94% 29.67 in 4.0 mi West 25.3 mph 35.7 mph N/A   Overcast
10:55 AM 49.1 °F - 47.5 °F 94% 29.69 in 4.0 mi West 23.0 mph 29.9 mph N/A   Overcast
11:15 AM 50.0 °F - 47.8 °F 92% 29.72 in 4.0 mi West 16.1 mph 27.6 mph N/A   Overcast
11:35 AM 51.4 °F - 49.3 °F 92% 29.73 in 5.0 mi West 19.6 mph - N/A   Overcast
11:55 AM 54.0 °F - 51.3 °F 91% 29.73 in 7.0 mi West 18.4 mph 21.9 mph N/A   Overcast
12:15 PM 55.4 °F - 52.0 °F 88% 29.74 in 10.0 mi West 18.4 mph 25.3 mph N/A   Overcast
12:35 PM 56.7 °F - 52.5 °F 86% 29.75 in 10.0 mi West 17.3 mph 21.9 mph N/A   Mostly Cloudy
12:55 PM 57.9 °F - 52.7 °F 83% 29.76 in 10.0 mi West 19.6 mph - N/A   Mostly Cloudy
1:15 PM 59.9 °F - 53.6 °F 80% 29.76 in 10.0 mi West 17.3 mph - N/A   Mostly Cloudy
1:35 PM 60.3 °F - 53.4 °F 78% 29.76 in 10.0 mi West 17.3 mph - N/A   Scattered Clouds
1:55 PM 61.2 °F - 53.1 °F 75% 29.78 in 10.0 mi West 16.1 mph 20.7 mph N/A   Clear
2:15 PM 62.2 °F - 53.8 °F 74% 29.78 in 10.0 mi West 16.1 mph - N/A   Clear
2:35 PM 62.8 °F - 53.1 °F 71% 29.78 in 10.0 mi WNW 15.0 mph - N/A   Clear
2:55 PM 63.5 °F - 53.2 °F 69% 29.78 in 10.0 mi WNW 13.8 mph 18.4 mph N/A   Clear
3:15 PM 64.0 °F - 53.6 °F 69% 29.78 in 10.0 mi WNW 12.7 mph 17.3 mph N/A   Clear
3:35 PM 64.4 °F - 53.4 °F 67% 29.78 in 10.0 mi WNW 11.5 mph - N/A   Clear
3:55 PM 65.3 °F - 54.0 °F 67% 29.79 in 10.0 mi West 11.5 mph - N/A   Scattered Clouds
4:15 PM 65.3 °F - 53.6 °F 66% 29.79 in 10.0 mi West 12.7 mph - N/A   Scattered Clouds
4:35 PM 65.1 °F - 53.4 °F 66% 29.79 in 10.0 mi NW 5.8 mph - N/A   Clear
4:55 PM 65.8 °F - 54.0 °F 65% 29.80 in 10.0 mi WNW 6.9 mph - N/A   Scattered Clouds
5:15 PM 66.4 °F - 54.7 °F 66% 29.81 in 10.0 mi West 5.8 mph - N/A   Scattered Clouds
5:35 PM 65.7 °F - 54.3 °F 67% 29.82 in 10.0 mi WNW 5.8 mph - N/A   Scattered Clouds
5:55 PM 65.7 °F - 53.8 °F 65% 29.82 in 10.0 mi Calm Calm - N/A   Clear
6:15 PM 65.7 °F - 54.0 °F 66% 29.83 in 10.0 mi Calm Calm - N/A   Clear
6:35 PM 65.3 °F - 53.8 °F 66% 29.84 in 10.0 mi North 3.5 mph - N/A   Clear
6:55 PM 63.5 °F - 55.0 °F 74% 29.84 in 10.0 mi NNE 3.5 mph - N/A   Clear
7:15 PM 62.4 °F - 53.8 °F 73% 29.84 in 10.0 mi ENE 4.6 mph - N/A   Clear
7:35 PM 59.9 °F - 54.0 °F 81% 29.86 in 10.0 mi ENE 8.1 mph - N/A   Clear
7:55 PM 58.6 °F - 53.6 °F 83% 29.86 in 10.0 mi ENE 8.1 mph - N/A   Clear
8:15 PM 58.5 °F - 53.1 °F 82% 29.87 in 10.0 mi East 10.4 mph - N/A   Clear
8:35 PM 57.6 °F - 52.7 °F 84% 29.88 in 10.0 mi East 10.4 mph - N/A   Clear
8:55 PM 56.8 °F - 52.2 °F 84% 29.89 in 10.0 mi East 9.2 mph - N/A   Clear
9:15 PM 55.8 °F - 51.8 °F 87% 29.89 in 10.0 mi East 9.2 mph - N/A   Clear
9:35 PM 55.8 °F - 51.1 °F 84% 29.90 in 10.0 mi East 8.1 mph - N/A   Clear
9:55 PM 54.9 °F - 50.4 °F 85% 29.91 in 10.0 mi East 8.1 mph - N/A   Clear
10:15 PM 54.5 °F - 49.8 °F 84% 29.91 in 10.0 mi East 10.4 mph - N/A   Clear
10:35 PM 53.2 °F - 49.3 °F 86% 29.92 in 10.0 mi East 9.2 mph - N/A   Clear
10:55 PM 51.3 °F - 47.5 °F 87% 29.92 in 10.0 mi East 11.5 mph - N/A   Clear
11:15 PM 49.3 °F - 45.5 °F 87% 29.94 in 10.0 mi East 10.4 mph - N/A   Clear
11:35 PM 48.2 °F - 44.6 °F 87% 29.94 in 7.0 mi East 9.2 mph - N/A   Clear
11:55 PM 47.3 °F - 44.1 °F 88% 29.95 in 7.0 mi ESE 12.7 mph - N/A   Clear